Location: Grand Mazuras
(45.9128°N, 1.7636°E)
Time: 06:23:15
(UTC+00:00)

Resurs 01 Rocket - Pass Details

Date: 18 April 2021
Orbit: 634 x 644 km, 97.9° (Epoch: 15 May)

Event Time Altitude Azimuth Distance (km) Brightness Sun altitude
Exits shadow 20:50:18 23° 193° (SSW) 1,370 3.0 -19.9°
Maximum altitude 20:52:52 51° 260° (W) 811 2.3 -20.2°
Drops below altitude 10° 20:57:14 10° 337° (NNW) 2,052 5.2 -20.8°
Sets 20:59:30 0° 343° (NNW) 2,967 6.1 -21.0°
